When you browse on this site, cookies collect data to enhance your experience and personalize the content and advertising you see.
Visit our Privacy Policy to learn more. By continuing to use the site, you agree to this use of cookies and data.
  • In Deutschland
  • Länderverzeichnis
  • Für 7 Tage
  • Wassertemperatur
  • Wetterkarte
  • Widgets
  • user-avatar
    Anmelden

    Stündliche Wetter Kowalicha

    Heute, 25 Mai, Montag

    Zeit Temperatur Niederschläge Wind Luftdruck Luftfeuchtigkeit
    00:00 +10°C° 0 mm 2 m/S 758 mmHg 88%
    01:00 +10°C° 0 mm 2 m/S 758 mmHg 88%
    02:00 +9°C° 0.1 mm 2 m/S 758 mmHg 90%
    03:00 +9°C° 0.1 mm 2 m/S 758 mmHg 91%
    04:00 +9°C° 0.1 mm 2 m/S 758 mmHg 92%
    05:00 +9°C° 0.1 mm 2 m/S 758 mmHg 91%
    06:00 +10°C° 0.1 mm 2 m/S 758 mmHg 89%
    07:00 +10°C° 0 mm 2 m/S 759 mmHg 89%
    08:00 +12°C° 0.2 mm 2 m/S 759 mmHg 85%
    09:00 +13°C° 0.2 mm 2 m/S 759 mmHg 81%
    10:00 +13°C° 0.2 mm 2 m/S 759 mmHg 77%
    11:00 +15°C° 0.4 mm 2 m/S 759 mmHg 71%
    12:00 +16°C° 0.4 mm 2 m/S 759 mmHg 66%
    13:00 +16°C° 0 mm 3 m/S 759 mmHg 62%
    14:00 +16°C° 0.3 mm 3 m/S 759 mmHg 63%
    15:00 +16°C° 0.3 mm 3 m/S 759 mmHg 64%
    16:00 +16°C° 0.3 mm 3 m/S 759 mmHg 65%
    17:00 +14°C° 0.5 mm 3 m/S 759 mmHg 71%
    18:00 +13°C° 0.5 mm 3 m/S 760 mmHg 77%
    19:00 +13°C° 0.5 mm 2 m/S 760 mmHg 83%
    20:00 +11°C° 0 mm 3 m/S 760 mmHg 86%
    21:00 +11°C° 0 mm 3 m/S 761 mmHg 89%
    22:00 +10°C° 0 mm 3 m/S 761 mmHg 91%
    23:00 +9°C° 0 mm 3 m/S 761 mmHg 93%

    Morgen, 26 Mai, Dienstag

    Zeit Temperatur Niederschläge Wind Luftdruck Luftfeuchtigkeit
    00:00 +9°C° 0 mm 3 m/S 761 mmHg 94%
    01:00 +9°C° 0 mm 3 m/S 762 mmHg 95%
    02:00 +8°C° 0.1 mm 3 m/S 762 mmHg 96%
    03:00 +8°C° 0.1 mm 3 m/S 762 mmHg 96%
    04:00 +8°C° 0.1 mm 3 m/S 762 mmHg 96%
    05:00 +9°C° 0 mm 3 m/S 763 mmHg 93%
    06:00 +11°C° 0 mm 3 m/S 763 mmHg 90%
    07:00 +12°C° 0 mm 3 m/S 763 mmHg 86%
    08:00 +14°C° 0.2 mm 3 m/S 763 mmHg 80%
    09:00 +15°C° 0.2 mm 4 m/S 763 mmHg 74%
    10:00 +17°C° 0.2 mm 4 m/S 763 mmHg 67%
    11:00 +17°C° 0.2 mm 5 m/S 763 mmHg 64%
    12:00 +19°C° 0.2 mm 5 m/S 763 mmHg 60%
    13:00 +19°C° 0.2 mm 5 m/S 763 mmHg 57%
    14:00 +19°C° 0.2 mm 5 m/S 763 mmHg 58%
    15:00 +19°C° 0.2 mm 5 m/S 763 mmHg 60%
    16:00 +19°C° 0.2 mm 5 m/S 763 mmHg 61%
    17:00 +17°C° 0.2 mm 5 m/S 763 mmHg 68%
    18:00 +15°C° 0.2 mm 4 m/S 763 mmHg 75%
    19:00 +14°C° 0.2 mm 3 m/S 763 mmHg 82%
    20:00 +13°C° 0 mm 3 m/S 763 mmHg 85%
    21:00 +12°C° 0 mm 3 m/S 764 mmHg 88%
    22:00 +11°C° 0 mm 3 m/S 764 mmHg 92%
    23:00 +11°C° 0 mm 3 m/S 764 mmHg 93%

    übermorgen, 27 Mai, Mittwoch

    Zeit Temperatur Niederschläge Wind Luftdruck Luftfeuchtigkeit
    00:00 +10°C° 0 mm 3 m/S 764 mmHg 94%
    01:00 +10°C° 0 mm 3 m/S 764 mmHg 95%
    02:00 +10°C° 0 mm 3 m/S 764 mmHg 95%
    03:00 +9°C° 0 mm 3 m/S 763 mmHg 95%
    04:00 +9°C° 0 mm 2 m/S 763 mmHg 96%
    05:00 +10°C° 0 mm 3 m/S 763 mmHg 91%
    06:00 +12°C° 0 mm 3 m/S 764 mmHg 87%
    07:00 +14°C° 0 mm 3 m/S 764 mmHg 83%
    08:00 +16°C° 0.1 mm 3 m/S 763 mmHg 76%
    09:00 +18°C° 0.1 mm 4 m/S 763 mmHg 69%
    10:00 +19°C° 0.1 mm 4 m/S 763 mmHg 63%
    11:00 +19°C° 0.2 mm 4 m/S 762 mmHg 60%
    12:00 +20°C° 0.2 mm 4 m/S 762 mmHg 58%
    13:00 +20°C° 0.2 mm 4 m/S 762 mmHg 56%
    14:00 +20°C° 0.2 mm 4 m/S 762 mmHg 57%
    15:00 +20°C° 0.2 mm 4 m/S 761 mmHg 57%
    16:00 +20°C° 0.2 mm 4 m/S 761 mmHg 58%
    17:00 +18°C° 0.1 mm 4 m/S 761 mmHg 65%
    18:00 +17°C° 0.1 mm 3 m/S 761 mmHg 71%
    19:00 +14°C° 0.1 mm 3 m/S 761 mmHg 77%
    20:00 +14°C° 0 mm 2 m/S 761 mmHg 80%
    21:00 +13°C° 0 mm 2 m/S 761 mmHg 82%
    22:00 +12°C° 0 mm 2 m/S 761 mmHg 85%
    23:00 +12°C° 0 mm 1 m/S 761 mmHg 85%

    28 Mai, Donnerstag

    Zeit Temperatur Niederschläge Wind Luftdruck Luftfeuchtigkeit
    00:00 +11°C° 0 mm 1 m/S 761 mmHg 86%
    01:00 +11°C° 0 mm 1 m/S 760 mmHg 86%
    02:00 +11°C° 0 mm 1 m/S 760 mmHg 86%
    03:00 +11°C° 0 mm 1 m/S 760 mmHg 86%
    04:00 +11°C° 0 mm 1 m/S 760 mmHg 86%
    05:00 +12°C° 0.1 mm 1 m/S 760 mmHg 84%
    06:00 +13°C° 0.1 mm 2 m/S 759 mmHg 83%
    07:00 +13°C° 0.1 mm 2 m/S 759 mmHg 81%
    08:00 +14°C° 0 mm 3 m/S 759 mmHg 74%
    09:00 +15°C° 0 mm 4 m/S 759 mmHg 67%
    10:00 +16°C° 0 mm 5 m/S 759 mmHg 60%
    11:00 +17°C° 0 mm 5 m/S 758 mmHg 58%
    12:00 +19°C° 0 mm 5 m/S 758 mmHg 56%
    13:00 +19°C° 0 mm 5 m/S 758 mmHg 53%
    14:00 +19°C° 0.3 mm 5 m/S 758 mmHg 58%
    15:00 +17°C° 0.3 mm 6 m/S 757 mmHg 62%
    16:00 +16°C° 0.3 mm 7 m/S 757 mmHg 66%
    17:00 +15°C° 0.1 mm 6 m/S 757 mmHg 70%
    18:00 +14°C° 0.1 mm 6 m/S 758 mmHg 73%
    19:00 +12°C° 0.1 mm 5 m/S 758 mmHg 76%
    20:00 +10°C° 0 mm 5 m/S 758 mmHg 75%
    21:00 +9°C° 0 mm 5 m/S 758 mmHg 74%
    22:00 +8°C° 0 mm 5 m/S 759 mmHg 73%
    23:00 +7°C° 0 mm 5 m/S 759 mmHg 74%

    29 Mai, Freitag

    Zeit Temperatur Niederschläge Wind Luftdruck Luftfeuchtigkeit
    00:00 +6°C° 0 mm 5 m/S 759 mmHg 74%
    01:00 +5°C° 0 mm 5 m/S 759 mmHg 75%
    02:00 +5°C° 0 mm 4 m/S 759 mmHg 76%
    03:00 +5°C° 0 mm 4 m/S 759 mmHg 77%
    04:00 +4°C° 0 mm 4 m/S 759 mmHg 78%
    05:00 +6°C° 0 mm 5 m/S 759 mmHg 74%
    06:00 +7°C° 0 mm 5 m/S 759 mmHg 69%
    07:00 +8°C° 0 mm 6 m/S 759 mmHg 65%
    08:00 +10°C° 0 mm 6 m/S 759 mmHg 62%
    09:00 +11°C° 0 mm 6 m/S 759 mmHg 59%
    10:00 +14°C° 0 mm 6 m/S 758 mmHg 56%
    11:00 +14°C° 0.5 mm 6 m/S 758 mmHg 60%
    12:00 +14°C° 0.5 mm 7 m/S 758 mmHg 63%
    13:00 +14°C° 0.5 mm 7 m/S 757 mmHg 67%
    14:00 +14°C° 0.3 mm 7 m/S 757 mmHg 67%
    15:00 +14°C° 0.3 mm 6 m/S 757 mmHg 68%
    16:00 +14°C° 0.3 mm 6 m/S 756 mmHg 68%
    17:00 +13°C° 0.5 mm 6 m/S 756 mmHg 74%
    18:00 +10°C° 0.5 mm 6 m/S 756 mmHg 80%
    19:00 +9°C° 0.5 mm 6 m/S 756 mmHg 86%
    20:00 +8°C° 0.1 mm 5 m/S 756 mmHg 87%
    21:00 +8°C° 0.1 mm 4 m/S 757 mmHg 88%
    22:00 +8°C° 0.1 mm 3 m/S 757 mmHg 89%
    23:00 +7°C° 0 mm 3 m/S 756 mmHg 90%

    30 Mai, Samstag

    Zeit Temperatur Niederschläge Wind Luftdruck Luftfeuchtigkeit
    00:00 +7°C° 0 mm 3 m/S 756 mmHg 91%
    01:00 +5°C° 0 mm 3 m/S 756 mmHg 92%
    02:00 +5°C° 0 mm 3 m/S 756 mmHg 93%
    03:00 +5°C° 0 mm 3 m/S 756 mmHg 93%
    04:00 +7°C° 0 mm 3 m/S 756 mmHg 94%
    05:00 +8°C° 0 mm 2 m/S 756 mmHg 92%
    06:00 +9°C° 0 mm 2 m/S 756 mmHg 91%
    07:00 +11°C° 0 mm 1 m/S 756 mmHg 89%
    08:00 +12°C° 0 mm 1 m/S 756 mmHg 86%
    09:00 +13°C° 0 mm 1 m/S 756 mmHg 83%
    10:00 +14°C° 0 mm 2 m/S 756 mmHg 79%
    11:00 +14°C° 0 mm 2 m/S 756 mmHg 78%
    12:00 +15°C° 0 mm 2 m/S 756 mmHg 77%
    13:00 +16°C° 0 mm 2 m/S 756 mmHg 76%
    14:00 +16°C° 0.1 mm 2 m/S 755 mmHg 76%
    15:00 +16°C° 0.1 mm 2 m/S 755 mmHg 77%
    16:00 +17°C° 0.1 mm 2 m/S 755 mmHg 77%
    17:00 +16°C° 0.1 mm 2 m/S 755 mmHg 81%
    18:00 +16°C° 0.1 mm 2 m/S 755 mmHg 84%
    19:00 +15°C° 0.1 mm 2 m/S 754 mmHg 87%
    20:00 +15°C° 0.9 mm 2 m/S 754 mmHg 90%
    21:00 +13°C° 0.9 mm 3 m/S 754 mmHg 92%
    22:00 +13°C° 0.9 mm 3 m/S 754 mmHg 95%
    23:00 +13°C° 0.4 mm 3 m/S 754 mmHg 95%
    Mehr zeigen